Skagway, AK

9:34 AM AKDT on July 29, 2016 (GMT -0800)
Skagway

Weather History for PAGY - December, 2013

Change the Weather History Date:

Thursday, December 26, 2013

  Actual Average Record
Temperature  
Mean Temperature 22 °F -  
Max Temperature 25 °F 30 °F 50 °F (1999)
Min Temperature 18 °F 21 °F -1 °F (1965)
Degree Days  
Heating Degree Days 43    
Moisture  
Dew Point 11 °F    
Average Humidity 64    
Maximum Humidity 74    
Minimum Humidity 55    
Precipitation  
Precipitation 0.00 in - - ()
Sea Level Pressure  
Sea Level Pressure 29.71 in    
Wind  
Wind Speed 23 mph (NE)    
Max Wind Speed 29 mph    
Max Gust Speed 44 mph    
Visibility 4 miles    
Events Snow    
Averages and records for this station are not official NWS values.
T = Trace of Precipitation, MM = Missing Value Source: NWS Daily Summary

Daily Weather History Graph

Daily Weather History Graph

Search for Another Location

Airport or City:

Trip Planner

Search our weather history database for the weather conditions in past years. The results will help you decide how hot, cold, wet, or windy it might be!

Date:

Astronomy

Dec. 26, 2013 Rise Set
Actual Time 8:59 AM AKST 3:04 PM AKST
Civil Twilight 8:03 AM AKST 4:00 PM AKST
Nautical Twilight 7:08 AM AKST 4:55 PM AKST
Astronomical Twilight 6:17 AM AKST 5:46 PM AKST
Moon 1:26 AM AKST (12/26) 11:48 AM AKST (12/26)
Length of Visible Light 7h 56m
Length of Day
6h 04m
Last Quarter, 37% of the Moon is Illuminated
Dec 26
Last Quarter
Jan 1
New
Jan 7
First Quarter
Jan 15
Full
Jan 23
Last Quarter

Hourly Weather History & Observations

Time (AKST) Temp. Windchill Dew Point Humidity Pressure Visibility Wind Dir Wind Speed Gust Speed Precip Events Conditions
12:53 AM 25.0 °F 9.9 °F 15.1 °F 66% 29.66 in 10.0 mi NE 23.0 mph 27.6 mph 0.00 in   Overcast
2:53 AM 24.1 °F 8.7 °F 12.9 °F 62% 29.65 in 10.0 mi NE 23.0 mph 32.2 mph N/A   Overcast
3:53 AM 24.1 °F 9.4 °F 14.0 °F 65% 29.65 in 9.0 mi NE 20.7 mph 29.9 mph 0.00 in Snow Light Snow
4:51 AM 23.0 °F 6.3 °F 12.2 °F 63% 29.63 in 2.5 mi NE 26.5 mph 32.2 mph 0.00 in Snow Light Snow
4:53 AM 23.0 °F 7.2 °F 14.0 °F 68% 29.64 in 2.5 mi NE 23.0 mph 32.2 mph 0.00 in Snow Light Snow
5:30 AM 21.2 °F 4.9 °F 14.0 °F 74% 29.63 in 1.8 mi NE 23.0 mph 33.4 mph 0.00 in Snow Light Snow
5:39 AM 23.0 °F 7.2 °F 15.8 °F 74% 29.63 in 2.0 mi NE 23.0 mph 31.1 mph 0.00 in Snow Light Snow
5:53 AM 21.9 °F 5.5 °F 14.0 °F 72% 29.64 in 2.5 mi NE 24.2 mph 31.1 mph 0.00 in Snow Light Snow
6:05 AM 23.0 °F 6.6 °F 12.2 °F 63% 29.63 in 4.0 mi NE 25.3 mph 32.2 mph 0.00 in Snow Light Snow
6:25 AM 23.0 °F 7.6 °F 12.2 °F 63% 29.64 in 5.0 mi NE 21.9 mph 32.2 mph 0.00 in Snow Light Snow
6:53 AM 23.0 °F 8.0 °F 14.0 °F 68% 29.65 in 4.0 mi NE 20.7 mph 34.5 mph 0.00 in Snow Light Snow
7:19 AM 21.2 °F 4.5 °F 14.0 °F 74% 29.65 in 2.0 mi NE 24.2 mph - 0.00 in Snow Light Snow
7:31 AM 21.2 °F 4.2 °F 12.2 °F 68% 29.65 in 2.5 mi NE 25.3 mph 34.5 mph 0.00 in Snow Light Snow
7:43 AM 21.2 °F 5.2 °F 12.2 °F 68% 29.65 in 3.0 mi NE 21.9 mph 32.2 mph 0.00 in Snow Light Snow
7:53 AM 21.9 °F 6.2 °F 12.9 °F 68% 29.65 in 4.0 mi NE 21.9 mph 31.1 mph 0.00 in Snow Light Snow
8:27 AM 21.2 °F 4.9 °F 12.2 °F 68% 29.66 in 3.0 mi NE 23.0 mph 29.9 mph 0.00 in Snow Light Snow
8:53 AM 21.9 °F 5.5 °F 12.9 °F 68% 29.67 in 3.0 mi NE 24.2 mph 31.1 mph 0.00 in Snow Light Snow
9:16 AM 21.2 °F 4.5 °F 12.2 °F 68% 29.67 in 4.0 mi NE 24.2 mph 32.2 mph 0.00 in Snow Light Snow
9:53 AM 21.9 °F 5.8 °F 10.9 °F 63% 29.69 in 4.0 mi NE 23.0 mph 34.5 mph 0.00 in Snow Light Snow
10:39 AM 21.2 °F 4.5 °F 10.4 °F 63% 29.71 in 2.0 mi NE 24.2 mph 36.8 mph 0.00 in Snow Light Snow
10:51 AM 21.2 °F 3.3 °F 10.4 °F 63% 29.70 in 1.8 mi NE 28.8 mph 36.8 mph 0.00 in Snow Light Snow
10:53 AM 21.0 °F 3.6 °F 10.9 °F 65% 29.70 in 2.0 mi NE 26.5 mph 36.8 mph 0.00 in Snow Light Snow
11:02 AM 21.2 °F 3.9 °F 10.4 °F 63% 29.69 in 3.0 mi NE 26.5 mph 36.8 mph 0.00 in Snow Light Snow
11:09 AM 21.2 °F 4.5 °F 10.4 °F 63% 29.70 in 2.5 mi NE 24.2 mph 36.8 mph 0.00 in Snow Light Snow
11:26 AM 21.2 °F 5.2 °F 10.4 °F 63% 29.71 in 4.0 mi NE 21.9 mph 35.7 mph 0.00 in Snow Light Snow
11:53 AM 23.0 °F 6.3 °F 10.0 °F 58% 29.71 in 5.0 mi NE 26.5 mph 33.4 mph 0.00 in Snow Light Snow
12:53 PM 21.9 °F 5.5 °F 10.0 °F 60% 29.71 in 5.0 mi NE 24.2 mph 34.5 mph 0.00 in Snow Light Snow
1:53 PM 21.9 °F 5.5 °F 9.0 °F 58% 29.72 in 6.0 mi NE 24.2 mph 40.3 mph 0.00 in Snow Light Snow
2:53 PM 21.9 °F 6.2 °F 8.1 °F 55% 29.74 in 4.0 mi NE 21.9 mph 43.7 mph 0.00 in Snow Light Snow
3:53 PM 21.9 °F 5.8 °F 9.0 °F 58% 29.75 in 8.0 mi NE 23.0 mph 39.1 mph 0.00 in   Overcast
4:53 PM 21.0 °F 5.4 °F 9.0 °F 60% 29.75 in 5.0 mi ENE 20.7 mph 32.2 mph 0.00 in Snow Light Snow
5:53 PM 21.0 °F 9.9 °F 9.0 °F 60% 29.78 in 9.0 mi NE 10.4 mph 32.2 mph 0.00 in Snow Light Snow
6:53 PM 21.0 °F 7.6 °F 9.0 °F 60% 29.79 in 5.0 mi NNE 15.0 mph 32.2 mph 0.00 in   Overcast
7:53 PM 19.9 °F 3.5 °F 8.1 °F 60% 29.79 in 7.0 mi NE 21.9 mph 29.9 mph 0.00 in Snow Light Snow
8:53 PM 19.9 °F 2.8 °F 7.0 °F 57% 29.80 in 7.0 mi NE 24.2 mph 35.7 mph 0.00 in Snow Light Snow
9:20 PM 19.4 °F 2.1 °F 6.8 °F 58% 29.81 in 2.0 mi NE 24.2 mph 34.5 mph 0.00 in Snow Light Snow
9:31 PM 19.4 °F 3.2 °F 8.6 °F 63% 29.82 in 1.5 mi NNE 20.7 mph 35.7 mph 0.00 in Snow Light Snow
9:38 PM 19.4 °F 5.0 °F 8.6 °F 63% 29.82 in 3.0 mi NE 16.1 mph 29.9 mph 0.00 in Snow Light Snow
9:48 PM 19.4 °F 4.5 °F 8.6 °F 63% 29.83 in 3.0 mi NE 17.3 mph 28.8 mph 0.00 in Snow Light Snow
9:53 PM 19.0 °F 3.6 °F 7.0 °F 59% 29.83 in 3.0 mi NE 18.4 mph 29.9 mph 0.00 in Snow Light Snow
10:53 PM 19.0 °F 2.0 °F 6.1 °F 57% 29.85 in 4.0 mi NE 23.0 mph 34.5 mph 0.00 in Snow Light Snow
11:53 PM 18.0 °F 2.2 °F 6.1 °F 60% 29.87 in 4.0 mi NNE 18.4 mph 36.8 mph 0.00 in Snow Light Snow